CYGFM07

Last updated on Sun Jun 21 2026 00:02:47 GMT+0000 (Coordinated Universal Time)

1 41890U 16078G 26171.41407463 .00022736 00000+0 26880-3 0 9996 2 41890 34.9433 208.0826 0007489 222.6573 137.3571 15.60258013529500
UTC large
Height (km)
Speed (km/s)
/
Latitude / Longitude
Inclination (degrees)
Orbital Period (minutes)
Azimuth
Elevation
Range (km)
Doppler Factor

Next 0 passes for location: London (51.5072 / 0.1276)

No passes found over London.
CYGFM07